Last 24 Hours

Red Mountain

10 Minute Data | America/Los_Angeles
as of 5/4/26 1:58 AM PDT
Date & Time Temp (°F) Dew Pt (°F) RH (%) Wind Spd (mph) Wind Dir (°) Wind Gust (mph) Wind Gst Dir (°) Daily Max Temp (°F) Daily Min Temp (°F)
5/4/26 - 0150 40.5 40.5 100 10.2 W | 260 13.2 W | 264 41.1 40.3
5/4/26 - 0140 40.5 40.5 100 10.6 WSW | 257 14.0 WSW | 258 41.1 40.4
5/4/26 - 0130 40.6 40.6 100 11.5 WSW | 246 14.3 W | 263 41.1 40.4
5/4/26 - 0120 40.5 40.5 100 12.6 WSW | 250 17.5 WSW | 256 41.1 40.4
5/4/26 - 0110 40.9 40.9 100 12.5 WSW | 257 17.8 WSW | 251 41.1 40.4
5/4/26 - 0100 40.9 40.9 100 12.2 WSW | 250 16.4 W | 264 63.9 39.2
5/4/26 - 0050 40.4 40.4 100 8.2 WSW | 242 12.0 WSW | 237 63.9 39.2
5/4/26 - 0040 40.1 40.1 100 12.1 WSW | 252 16.3 WSW | 252 63.9 39.2
5/4/26 - 0030 39.9 39.9 100 13.8 WSW | 253 17.8 WSW | 247 63.9 39.2
5/4/26 - 0020 39.7 39.7 100 11.4 WSW | 252 14.1 WSW | 248 63.9 39.2
5/4/26 - 0010 39.8 39.7 100 10.9 WSW | 250 13.7 WSW | 252 63.9 39.2
5/4/26 - 0000 40.5 40.5 100 11.1 WSW | 244 15.4 WSW | 253 63.9 40.1
5/3/26 - 2350 41.4 41.4 100 11.1 WSW | 238 14.7 WSW | 242 63.9 40.4
5/3/26 - 2340 41.3 41.3 100 9.8 SW | 236 13.7 SW | 233 63.9 40.4
5/3/26 - 2330 41.0 41.0 100 8.8 WSW | 237 11.9 SW | 231 63.9 40.4
5/3/26 - 2320 40.9 40.9 100 7.6 SW | 235 10.4 SW | 228 63.9 40.4
5/3/26 - 2310 40.8 40.8 100 6.6 SW | 236 9.1 SW | 236 63.9 40.4
5/3/26 - 2300 40.8 40.7 100 9.1 SW | 228 11.5 SW | 224 63.9 40.4
5/3/26 - 2250 40.6 40.6 100 12.4 SW | 223 15.7 SW | 224 63.9 40.4
5/3/26 - 2240 40.7 40.6 100 12.0 SW | 228 16.1 SW | 224 63.9 40.4
5/3/26 - 2230 40.6 40.6 100 12.4 SW | 235 16.7 SW | 229 63.9 40.4
5/3/26 - 2220 40.6 40.6 100 14.6 SW | 230 17.9 SW | 228 63.9 40.5
5/3/26 - 2210 40.6 40.6 100 12.7 SW | 233 16.7 SW | 223 63.9 40.6
5/3/26 - 2200 40.7 40.7 100 12.5 SW | 228 17.1 SW | 231 63.9 40.6
5/3/26 - 2150 40.7 40.7 100 12.6 SW | 225 17.3 SW | 217 63.9 40.6
5/3/26 - 2140 40.7 40.7 100 12.1 SW | 222 17.2 SW | 226 63.9 40.6
5/3/26 - 2130 40.7 40.7 100 14.2 SW | 221 18.8 SW | 221 63.9 40.6
5/3/26 - 2120 40.9 40.9 100 14.9 SW | 223 18.6 SW | 215 63.9 40.8
5/3/26 - 2110 41.2 41.2 100 12.9 SW | 222 17.7 SW | 222 63.9 41.0
5/3/26 - 2100 41.4 41.3 100 14.3 SW | 215 18.3 SW | 221 63.9 41.1
5/3/26 - 2050 41.8 41.8 100 14.9 SW | 218 19.3 SW | 224 63.9 41.5
5/3/26 - 2040 42.0 42.0 100 13.2 SSW | 212 16.7 SSW | 210 63.9 41.8
5/3/26 - 2030 42.0 42.0 100 11.7 SW | 218 16.2 SW | 225 63.9 41.8
5/3/26 - 2020 42.0 42.0 100 12.8 SSW | 213 16.0 SW | 227 63.9 41.8
5/3/26 - 2010 41.9 41.9 100 12.8 SSW | 203 16.7 SSW | 200 63.9 41.8
5/3/26 - 2000 42.0 42.0 100 12.8 SW | 217 15.7 SW | 219 63.9 41.9
5/3/26 - 1950 42.3 42.3 100 11.8 SW | 224 18.4 SW | 219 63.9 42.0
5/3/26 - 1940 42.4 42.4 100 13.2 SW | 230 18.4 SW | 232 63.9 42.3
5/3/26 - 1930 42.8 42.8 100 12.4 SW | 229 19.6 SW | 225 63.9 42.5
5/3/26 - 1920 43.2 43.2 100 14.3 SW | 229 20.2 SW | 235 63.9 43.0
5/3/26 - 1910 43.6 43.6 100 15.1 SW | 232 18.3 SW | 234 63.9 43.3
5/3/26 - 1900 43.9 43.8 100 13.4 SW | 233 17.1 WSW | 238 63.9 43.7
5/3/26 - 1850 44.3 44.2 100 14.4 SW | 236 17.8 WSW | 246 63.9 43.9
5/3/26 - 1840 44.8 44.7 100 13.5 SW | 232 18.2 WSW | 244 63.9 44.4
5/3/26 - 1830 45.3 45.2 99 13.6 SW | 235 18.6 WSW | 245 63.9 45.0
5/3/26 - 1820 46.1 46.0 99 12.9 SW | 234 18.8 SW | 236 63.9 45.9
5/3/26 - 1810 46.9 46.8 100 12.0 SW | 233 19.1 WSW | 252 63.9 46.5
5/3/26 - 1800 47.6 47.5 100 10.6 SW | 232 16.4 WSW | 238 63.9 47.1
5/3/26 - 1750 47.9 47.8 100 11.4 SW | 229 16.7 WSW | 238 63.9 47.1
5/3/26 - 1740 48.2 48.1 100 15.4 SW | 235 20.7 WSW | 242 63.9 47.1
5/3/26 - 1730 49.5 49.5 100 11.4 WSW | 239 18.8 WSW | 240 63.9 47.1
5/3/26 - 1720 49.3 49.3 100 7.9 WSW | 237 14.2 WSW | 249 63.9 47.1
5/3/26 - 1710 49.4 49.4 100 10.8 WSW | 245 18.0 WSW | 250 63.9 47.1
5/3/26 - 1700 49.7 49.7 100 8.5 WSW | 254 13.7 WSW | 249 63.9 47.1
5/3/26 - 1650 49.0 49.0 100 7.3 WSW | 243 14.4 SW | 230 63.9 47.1
5/3/26 - 1640 48.8 48.8 100 6.7 SW | 222 11.4 SW | 224 63.9 47.1
5/3/26 - 1630 49.3 49.3 100 6.1 SW | 225 12.4 WSW | 249 63.9 47.1
5/3/26 - 1620 48.1 48.1 100 5.8 SW | 236 12.6 SW | 219 63.9 47.1
5/3/26 - 1610 48.0 48.0 100 6.9 WSW | 237 11.7 WSW | 240 63.9 47.1
5/3/26 - 1600 48.0 48.0 100 5.4 SW | 227 10.0 SW | 220 63.9 47.1
5/3/26 - 1550 48.0 48.0 100 5.1 SW | 219 9.4 SW | 220 63.9 47.1
5/3/26 - 1540 47.8 47.8 100 4.6 SW | 235 8.6 WSW | 248 63.9 47.1
5/3/26 - 1530 47.5 47.5 100 5.7 WSW | 238 9.2 WSW | 244 63.9 47.1
5/3/26 - 1520 47.5 47.5 100 7.7 WSW | 238 10.7 SW | 222 63.9 47.1
5/3/26 - 1510 47.6 47.5 100 7.9 WSW | 238 11.0 WSW | 238 63.9 47.1
5/3/26 - 1500 47.7 47.7 100 6.9 WSW | 241 11.9 SW | 236 63.9 47.1
5/3/26 - 1450 47.6 47.6 100 7.1 WSW | 237 10.8 SW | 228 63.9 47.1
5/3/26 - 1440 47.3 47.3 100 9.0 WSW | 240 12.1 WSW | 237 63.9 47.1
5/3/26 - 1430 47.6 47.6 100 9.0 WSW | 237 12.9 WSW | 244 63.9 47.2
5/3/26 - 1420 47.9 47.9 100 7.0 SW | 232 10.2 SW | 227 63.9 47.3
5/3/26 - 1410 47.8 47.8 100 8.1 SW | 231 12.4 WSW | 245 63.9 47.3
5/3/26 - 1400 47.6 47.6 100 9.3 SW | 232 13.8 SW | 230 63.9 47.3
5/3/26 - 1350 47.7 47.7 100 9.5 SW | 236 13.8 SW | 231 63.9 47.3
5/3/26 - 1340 47.9 47.9 100 10.0 WSW | 242 14.2 SW | 219 63.9 47.6
5/3/26 - 1330 48.1 48.1 100 9.6 SW | 231 13.2 SW | 232 63.9 47.8
5/3/26 - 1320 48.5 48.5 100 9.0 WSW | 242 12.6 SW | 236 63.9 47.8
5/3/26 - 1310 48.4 48.3 100 7.5 SW | 236 11.5 SW | 236 63.9 47.8
5/3/26 - 1300 48.2 48.2 100 8.2 WSW | 252 12.0 WSW | 242 63.9 47.8
5/3/26 - 1250 48.4 48.3 100 7.7 WSW | 258 10.9 WSW | 249 63.9 48.0
5/3/26 - 1240 48.6 48.5 100 6.4 W | 270 9.3 W | 266 63.9 48.0
5/3/26 - 1230 48.3 48.2 100 6.8 WNW | 283 9.6 WNW | 289 63.9 48.0
5/3/26 - 1220 48.6 48.4 100 8.2 WNW | 282 11.9 WNW | 292 63.9 48.0
5/3/26 - 1210 48.8 48.6 99 8.0 W | 273 12.8 WNW | 288 63.9 48.3
5/3/26 - 1200 48.8 48.6 99 6.9 W | 270 9.9 W | 266 63.9 48.4
5/3/26 - 1150 48.7 48.4 99 8.2 W | 263 10.4 WSW | 255 63.9 48.5
5/3/26 - 1140 48.8 48.5 99 9.1 W | 263 13.4 W | 267 63.9 48.5
5/3/26 - 1130 48.9 48.4 98 8.5 W | 259 12.0 WSW | 257 63.9 48.5
5/3/26 - 1120 49.2 48.5 97 8.4 WSW | 257 11.1 WSW | 255 63.9 48.7
5/3/26 - 1110 50.5 49.6 96 8.1 WSW | 258 11.7 WSW | 250 63.9 49.4
5/3/26 - 1100 51.2 49.9 95 5.8 WSW | 244 8.5 W | 259 63.9 49.8
5/3/26 - 1050 52.0 49.6 91 4.9 WSW | 246 8.0 SW | 234 63.9 49.8
5/3/26 - 1040 54.2 50.2 86 2.4 SE | 127 5.8 ESE | 107 63.9 49.8
5/3/26 - 1030 50.1 49.2 97 3.9 WSW | 255 8.3 W | 268 63.9 49.8
5/3/26 - 1020 51.0 49.0 93 5.8 W | 264 9.0 W | 264 63.9 49.9
5/3/26 - 1010 55.7 49.6 80 3.9 ESE | 107 8.5 E | 85 63.9 51.2
5/3/26 - 1000 56.4 49.7 78 4.2 E | 87 6.7 E | 95 63.9 51.2
5/3/26 - 0950 55.3 49.8 82 3.3 E | 81 6.6 ESE | 105 63.9 51.2
5/3/26 - 0940 53.0 49.3 87 2.8 NE | 34 5.6 N | 11 63.9 51.2
5/3/26 - 0930 52.1 49.2 90 4.1 NNW | 348 8.3 N | 354 63.9 51.2
5/3/26 - 0920 53.0 48.7 85 2.3 NW | 317 4.5 WNW | 287 63.9 51.6
5/3/26 - 0910 53.8 48.2 81 4.9 E | 96 8.3 E | 92 63.9 52.3
5/3/26 - 0900 54.5 48.8 81 2.6 E | 91 5.4 NE | 48 63.9 52.3
5/3/26 - 0850 56.5 47.7 72 2.5 NNE | 33 6.2 NE | 43 63.9 54.7
5/3/26 - 0840 57.4 46.3 67 3.2 ENE | 77 5.3 ENE | 72 63.9 55.1
5/3/26 - 0830 58.9 39.2 49 4.2 ESE | 109 6.0 E | 80 63.9 55.1
5/3/26 - 0820 59.8 29.7 32 5.3 SE | 129 6.4 SE | 129 63.9 55.1
5/3/26 - 0810 60.0 31.1 33 3.9 SE | 129 5.3 SE | 136 63.9 55.1
5/3/26 - 0800 60.5 26.9 28 6.2 SE | 130 8.2 SE | 137 63.9 55.1
5/3/26 - 0750 60.6 28.4 29 6.3 SE | 126 9.6 SE | 134 63.9 55.1
5/3/26 - 0740 59.3 28.7 31 4.8 ESE | 120 6.7 SE | 137 63.9 55.1
5/3/26 - 0730 57.7 34.9 43 3.6 E | 96 5.0 ESE | 105 63.9 55.1
5/3/26 - 0720 57.1 35.0 44 2.6 ESE | 104 5.3 NE | 48 63.9 55.1
5/3/26 - 0710 58.9 29.9 33 2.3 SE | 134 3.5 SE | 130 63.9 57.3
5/3/26 - 0700 58.3 32.0 37 0.8 SE | 127 2.2 SE | 142 63.9 57.3
5/3/26 - 0650 58.6 32.2 37 1.2 SE | 136 2.8 S | 169 63.9 57.3
5/3/26 - 0640 58.6 28.8 32 1.8 SSE | 147 3.0 S | 171 63.9 57.3
5/3/26 - 0630 59.5 27.4 29 2.2 E | 92 4.2 E | 89 63.9 57.3
5/3/26 - 0620 59.0 27.6 30 3.3 ENE | 78 4.2 ENE | 70 63.9 57.3
5/3/26 - 0610 59.5 28.6 31 3.9 ESE | 105 4.5 ESE | 102 63.9 57.3
5/3/26 - 0600 59.7 28.5 30 4.5 ESE | 111 5.7 SE | 135 63.9 57.3
5/3/26 - 0550 59.3 29.9 33 5.4 ESE | 105 6.1 ESE | 104 63.9 57.3
5/3/26 - 0540 59.2 30.6 34 5.0 ESE | 108 5.8 ESE | 112 63.9 57.3
5/3/26 - 0530 58.6 31.9 36 5.1 SE | 129 6.0 ESE | 122 63.9 57.3
5/3/26 - 0520 57.8 31.4 37 5.3 SSE | 158 5.7 SSE | 161 63.9 57.3
5/3/26 - 0510 58.6 30.6 34 5.3 SSE | 158 6.8 SSE | 164 63.9 57.3
5/3/26 - 0500 59.1 31.0 34 5.3 S | 180 8.0 S | 169 63.9 58.6
5/3/26 - 0450 59.9 29.8 32 7.0 S | 175 8.6 S | 171 63.9 59.2
5/3/26 - 0440 59.9 30.2 32 7.8 S | 176 9.0 S | 170 63.9 59.2
5/3/26 - 0430 59.4 27.2 29 7.0 S | 172 8.0 S | 175 63.9 59.2
5/3/26 - 0420 60.0 27.0 28 7.2 S | 170 7.9 SSE | 168 63.9 59.2
5/3/26 - 0410 60.0 27.1 28 5.9 S | 173 7.8 S | 171 63.9 59.2
5/3/26 - 0400 59.5 27.9 30 4.3 S | 175 5.6 S | 174 63.9 59.2
5/3/26 - 0350 60.9 27.5 28 5.7 SSE | 164 7.2 SSE | 166 63.9 59.8
5/3/26 - 0340 62.2 25.5 24 5.9 SSE | 168 7.5 SSE | 165 63.9 61.9
5/3/26 - 0330 62.3 25.4 24 4.7 S | 169 5.8 S | 172 63.9 62.2
5/3/26 - 0320 62.4 26.3 25 5.8 SSE | 148 7.5 SE | 143 63.9 62.3
5/3/26 - 0310 62.5 27.0 26 5.8 SE | 140 6.8 SE | 133 63.9 62.4
5/3/26 - 0300 62.8 27.0 25 4.8 SE | 146 5.9 SE | 140 63.9 62.6
5/3/26 - 0250 63.3 26.5 25 6.4 SE | 133 6.8 SE | 129 63.9 62.9
5/3/26 - 0240 63.2 26.7 25 5.4 SE | 125 6.1 ESE | 122 63.9 62.9
5/3/26 - 0230 63.2 25.8 24 2.6 SSE | 156 4.2 SE | 132 63.9 62.9
5/3/26 - 0220 63.4 25.7 24 3.6 SE | 134 4.6 SE | 130 63.9 62.9
5/3/26 - 0210 63.4 25.6 24 4.6 SE | 139 5.3 SE | 142 63.9 62.9
5/3/26 - 0200 63.7 25.4 23 4.6 SE | 130 5.7 SE | 125 63.9 62.9
5/3/26 - 0150 63.8 24.4 22 5.9 ESE | 122 6.6 SE | 124 63.9 62.9
Max 63.8 50.2 100 15.4 - 20.7 - 63.9 62.9
Avg 50.1 40.7 79 8.0 - 11.3 - - -
Min 39.7 24.4 22 0.8 - 2.2 - 41.1 39.2